Погода Ачисай

Погода Ачисай : погода сейчас, прогноз погоды и архив. Всё, что Вы хотите узнать о погоде Ачисай!

Поиск расширенной информации на нашем сайте:

Другие новости

Новости СМИ2

Главная страница сайта

Новости сайта

03.07.2017

Напоминаем, что на нашем специализированном сайте Метеоцентр.Азия вы можете получить высокодетализированные автоматические прогнозы погоды по пунктам России, СНГ и мира в авиационном формате (включающие направление и скорость ветра, видимость, явления погоды, количество и форму облачности, нижнюю и верхнюю границу облачности).


Погода Ачисай - сегодня

Время (UTC), дата Ветер
(°,м/с) 
Видим.   Явления Облачность Т
(°С)
Тd
(°С)
f(%) Тe
(°С)
Pmin
(гПа)
dP
(гПа)
Po
(мм)
O2
(г/м3)
Тmin Tmax R s Состояние
почвы
18 20.04.18 110 (В) н/о    10/10 600 м кучево-дожд. 
[Cb cap]
+11.6 -1.4 40 +12  1014.2  -0.3  690  267    +14.4       
21 20.04.18 050 (СВ) н/о    ясно 
+7.9 +0.4 59 +9  1015  -0.5  690  270           
00 21.04.18 140 (ЮВ) н/о    ясно 
+7.7 +0.1 59 +9  1014.8  -0.2  690  270           
06 21.04.18 180 (Ю) 20000 м    3/0 верхняя 
[Ci sp]
+14 +2.8 47 +14  1013.3  -0.1  690  264  +6.3         
09 21.04.18 160 (Ю) 20000 м    10/0 верхняя 
[Ci sp]
+16.8 +2.2 37 +17  1011  -1.3  689  261           
12 21.04.18 180 (Ю) 20000 м    10/0 верхняя 
[Ci sp]
+16.8 -1.3 29 +17  1010.2  -0.7  689  261           
15 21.04.18 230 (ЮЗ) н/о    9/6 1000 м верхняя 
[Sc|Ci sp]
+15 +0.7 38 +16  1011.4  0.5  689  263    +17.3       
18 21.04.18 250 (З) н/о    6/4 1000 м верхняя 
[Sc|Ci sp]
+14.3 +0 37 +16  1011.9  0.2  689  264    +17.3       
21 21.04.18 230 (ЮЗ) н/о    4/0 верхняя 
[Ci sp]
+13.2 +0.4 41 +14  1011.4  -0.7  689  264           
00 22.04.18 290 (З) н/о    4/4 1000 м 
[Sc]
+11.4 +0.7 48 +13  1011.7  -0.3  688  266           
06 22.04.18 180 (Ю) 20000 м    10/4 1000 м верхняя 
[Sc|Ci sp]
+20.9 +0.5 26 +21  1008.8  0.3  689  257    +10.5       
09 22.04.18 140 (ЮВ) 20000 м    10/0 верхняя 
[Ci sp]
+22.9 +0.5 23 +23  1006.7  -1.3  688  255           
12 22.04.18 160 (Ю) 20000 м    10/6 600 м верхняя 
[Sc|Ci sp]
+22.3 -1.4 20 +22  1006.8  -0.2  687  256           
15 22.04.18 230 (ЮЗ) н/о    10/10 600 м кучево-дожд. 
[Cb cap]
+19.6 +2.5 32 +21  1009.1  1.5  689  258    +23.8       
21 22.04.18 320 (СЗ) н/о  в посл. час ливневой дождь  10/10 600 м кучево-дожд. 
[Cb cap]
+16.4 +6.6 52 +17  1010.4  -0.4  689  261           
00 23.04.18 320 (СЗ) н/о  {ливн. осадки}  10/10 600 м кучево-дожд. 
[Cb cap]
+15.8 +6.8 55 +17  1010.5  -0.1  689  261           
03 23.04.18 050 (СВ) 20000 м    10/10 600 м кучево-дожд. 
[Cb cap]
+15.1 +9.4 69 +18  1012  1.2  690  261      0.0     
09 23.04.18 110 (В) 20000 м    10/8 1000 м верхняя 
[Sc|Ci sp]
+19.2 +8.8 51 +21  1012.2  0.2  691  258           
12 23.04.18 160 (Ю) 20000 м    8/8 1000 м 
[Sc]
+19.1 +7.9 48 +20  1011.9  -0.3  690  259           
15 23.04.18 180 (Ю) н/о    10/10 1000 м 
[Sc]
+16 +9.3 64 +19  1012.2  -0.7  690  261    +20       
18 23.04.18 340 (С) н/о    8/8 1000 м 
[Sc]
+15.8 +7.5 58 +17  1010.3  -1.8  689  261    +20       
21 23.04.18 320 (СЗ) н/о    3/3 1000 м 
[Sc]
+14.4 +4.7 52 +16  1007.8  -2.7  686  262           
00 24.04.18 тихо ()   н/о    3/0 верхняя 
[Ci sp]
+14.6 +3.1 46 +15  1006.1  -1.6  685  261           
06 24.04.18 180 (Ю) 20000 м    10/8 1000 м верхняя 
[Sc|Ci sp]
+23.7 +4.2 28 +24  1000.4  -0.7  683  253  +14.1         
09 24.04.18 140 (ЮВ) 20000 м    10/10 600 м кучево-дожд. 
[Cb cap]
+23.4 +7.1 35 +23  1001.3  0.7  684  253           
Время (UTC), дата Ветер
(°,м/с) 
Видим.   Явления Облачность Т
(°С)
Тd
(°С)
f(%) Тe
(°С)
Pmin
(гПа)
dP
(гПа)
Po
(мм)
O2
(г/м3)
Тmin Tmax R s Состояние
почвы

Для получения пояснительной информации подведите курсор к названию столбца.

ПОГОДА Ачисай - архив

Всё, что Вы хотите узнать о погоде Ачисай - удобно и подробно!

Выберите нужную дату (начиная с 1 января 2015* года) и нажмите кнопку "Найти".
Будут отображены архивные сводки погоды по пункту Ачисай, начиная с указанной даты.


Отображать данные в формате CSV (для использования в таблицах Excel)


Внимание! Наш архив погоды предназначен исключительно для личного некоммерческого использования в познавательных целях. Если Вам необходимы официальные справки о состоянии погоды (для производственных, юридических, коммерческих и т.п. целей), обращайтесь в органы Росгидромета.

*Примечание: данная дата относится к архиву по метеостанциям СССР (Россия, СНГ, Балтия).
Архив по метеостанциям Зарубежной Европы и Азии (кроме Китая) хранится 10 дней, по другим регионам земного шара (Китай, Африка, Америка, Австралия, Океания) - 1 день.

Ачисай - район местоположения метеостанции


Название, широта, долгота, высота метеостанции:
Ачисай 43.6°ш. 68.9°д. 822 м над ур. моря [Казахстан]

Дополнительная информация

В oтличие oт бoльшинства пoгoдных сайтoв мы публикуем пoдрoбную метеoинфoрмацию в детальнoм прoфессиoнальнoм фoрмате.

Характеристики температуры и влажнoсти вoздуха измеряются на высoте 2 м в тени вдали oт зданий и деревьев.
Скoрoсть ветра измеряется на высoте 10 м (на урoвне рoста челoвека скoрoсть ветра ниже в 1.5-2 раза). Если метеoстанция нахoдится в гoрoде или в лесу, тo скoрoсть ветра занижена на 2-4 м/с пo сравнению с oткрытым местoм. Скoрoсть ветра над акватoриями крупных рек и oзёр, а также на вершинах хoлмoв на 2-5 м/с выше, чем в oбычных услoвиях.
Атмoсфернoе давление в разных тoчках местнoсти мoжет значительнo oтличаться oт давления на метеoстанции, в зависимoсти oт услoвий рельефа (при пoдъёме на 10 м давление пoнижается примернo на 1 мм рт.ст.).